Location: Condor
(52.3263°N, 114.5541°W)
Time: 17:57:11
(UTC+00:00)

Tiangong - Visible Passes

Search period start: 10 June 2023 00:00
Search period end: 20 June 2023 00:00
Orbit: 386 x 390 km, 41.5° (Epoch: 10 June)

Date Brightness Start Highest point End Pass type
(mag) Time Alt. Az. Time Alt. Az. Time Alt. Az.
10 Jun 0.1 09:29:16 12° SSE 09:29:16 12° SSE 09:30:02 10° SSE visible
11 Jun 0.1 10:05:52 10° SSW 10:06:17 11° S 10:07:02 10° S visible
17 Jun 0.3 05:49:51 10° SSW 05:49:56 10° SSW 05:49:56 10° SSW visible
18 Jun 0.1 04:51:41 10° S 04:52:28 11° S 04:53:14 10° SSE visible
19 Jun 0.0 05:28:26 10° SSW 05:29:47 12° S 05:30:13 12° S visible
